Location: Newark
(14.1000°N, 87.2167°W)
Time: 23:18:11
(UTC+00:00)

ISS - Visible Passes

Search period start: 19 July 2019 00:00
Search period end: 29 July 2019 00:00
Orbit: 409 x 418 km, 51.6° (Epoch: 20 July)

Date Brightness Start Highest point End Pass type
(mag) Time Alt. Az. Time Alt. Az. Time Alt. Az.
19 Jul -0.7 09:49:02 10° N 09:51:15 17° NE 09:53:28 10° E visible
20 Jul -0.6 00:43:30 10° W 00:45:52 18° NW 00:48:14 10° N visible
20 Jul -3.4 10:35:27 10° NW 10:38:32 39° SW 10:41:37 10° SSE visible
21 Jul -1.3 09:51:56 15° SE 09:51:56 15° SE 09:52:33 10° SE visible
